GW6479 Weather Reports


time (UTC)temp
F
wind
direction
speed
knots
gust
knots
rain 1hr
in
rain 24hr
in
rain mn
in
humidity
%
barometer
mb
20260504160222 71 265 8.7 14.8 0.00 0.00 0.00 46 1016.2
20260504150903 69 240 4.3 10.4 0.00 0.00 0.00 52 1016.5
20260504150432 68 270 6.1 11.3 0.00 0.00 0.00 51 1016.5
20260504140903 65 218 6.1 9.6 0.00 0.00 0.00 55 1017.0
20260504140433 64 209 4.3 9.6 0.00 0.00 0.00 57 1017.0
20260504130222 60 51 0.9 2.6 0.00 0.00 0.00 69 1017.2
20260504120223 51 345 0.9 1.7 0.00 0.00 0.00 88 1016.8
20260504110223 46 348 0.9 1.7 0.00 0.00 0.00 94 1016.4
20260504100222 46 0 0.0 0.9 0.00 0.00 0.00 97 1016.0
20260504081756 46 357 0.0 0.9 0.00 0.00 0.00 96 1016.1
20260504081116 46 218 0.9 0.9 0.00 0.00 0.00 95 1016.2
20260504080222 47 12 0.0 0.9 0.00 0.00 0.00 94 1016.2
20260504070223 47 180 0.9 1.7 0.00 0.00 0.00 94 1016.6
20260504060222 48 148 0.9 1.7 0.00 0.00 0.00 94 1017.1
20260504050222 49 21 0.9 1.7 0.00 0.00 0.00 92 1017.4
20260504045548 49 147 0.9 1.7 0.00 0.00 0.00 92 1017.4
20260504042902 49 349 2.6 2.6 0.00 0.00 0.00 95 1017.3
20260504042223 48 266 0.9 1.7 0.00 0.00 0.00 96 1017.3
20260504041542 49 283 0.9 2.6 0.00 0.00 0.00 92 1017.2
20260504041113 50 269 0.9 1.7 0.00 0.00 0.00 87 1017.2
20260504040222 50 156 0.9 1.7 0.00 0.00 0.00 87 1017.3
20260504035542 50 142 0.9 2.6 0.00 0.00 0.00 87 1017.4
20260504034902 50 143 0.9 1.7 0.00 0.00 0.00 87 1017.5
20260504034222 50 149 0.9 1.7 0.00 0.00 0.00 87 1017.6
20260504033542 50 135 0.9 1.7 0.00 0.00 0.00 89 1017.7
20260504032902 50 211 0.9 1.7 0.00 0.00 0.00 87 1017.8
20260504032223 50 182 0.9 1.7 0.00 0.00 0.00 86 1017.8
20260504031542 51 20 0.9 1.7 0.00 0.00 0.00 83 1017.9
20260504030908 50 149 0.9 1.7 0.00 0.00 0.00 86 1018.0
20260504025542 50 259 0.9 1.7 0.00 0.00 0.00 87 1018.1
20260504024904 52 192 0.9 1.7 0.00 0.00 0.00 80 1017.9
20260504024222 51 149 0.9 1.7 0.00 0.00 0.00 79 1018.0
20260504023542 52 242 0.9 1.7 0.00 0.00 0.00 77 1017.9
20260504022902 52 125 0.9 1.7 0.00 0.00 0.00 79 1017.9
20260504022222 52 309 0.9 1.7 0.00 0.00 0.00 78 1017.9
20260504021542 52 241 0.9 1.7 0.00 0.00 0.00 80 1017.8
20260504020902 52 0 0.0 0.9 0.00 0.00 0.00 79 1017.6
20260504020223 52 298 0.9 0.9 0.00 0.00 0.00 80 1017.6
20260504015543 52 344 0.9 1.7 0.00 0.00 0.00 79 1017.5
20260504015112 52 299 0.9 2.6 0.00 0.00 0.00 78 1017.4
20260504014222 53 303 0.9 2.6 0.00 0.00 0.00 75 1017.3
20260504013542 54 19 0.9 0.9 0.00 0.00 0.00 69 1017.1
20260504012902 54 8 0.9 0.9 0.00 0.00 0.00 73 1017.0
20260504012222 55 1 0.9 0.9 0.00 0.00 0.00 70 1016.9
20260504011542 55 319 0.9 0.9 0.00 0.00 0.00 70 1016.9
20260504011115 55 336 0.9 1.7 0.00 0.00 0.00 69 1016.8
20260504010222 56 278 1.7 1.7 0.00 0.00 0.00 68 1017.0
20260504005543 58 26 0.9 1.7 0.00 0.00 0.00 64 1016.9
20260504004903 59 126 0.9 2.6 0.00 0.00 0.00 60 1016.9
20260504004222 59 140 0.9 1.7 0.00 0.00 0.00 58 1016.9
20260504003754 60 180 1.7 1.7 0.00 0.00 0.00 51 1017.0
20260504003114 61 157 0.9 1.7 0.00 0.00 0.00 49 1016.9
20260504002222 62 356 0.9 0.9 0.00 0.00 0.00 49 1016.9
20260504001543 63 340 0.9 2.6 0.00 0.00 0.00 46 1017.0
20260504000902 64 302 0.9 2.6 0.00 0.00 0.00 47 1017.1
20260504000222 65 288 0.9 3.5 0.00 0.00 0.00 39 1017.0
20260503234903 66 308 2.6 4.3 0.00 0.00 0.00 35 1017.1
20260503234222 66 302 3.5 7.8 0.00 0.00 0.00 35 1017.1
20260503233547 66 302 3.5 7.8 0.00 0.00 0.00 34 1017.1
20260503232223 66 286 4.3 8.7 0.00 0.00 0.00 35 1017.1
20260503231543 67 284 4.3 10.4 0.00 0.00 0.00 35 1017.4
20260503230902 66 298 4.3 8.7 0.00 0.00 0.00 34 1017.2
20260503230222 67 309 5.2 10.4 0.00 0.00 0.00 33 1017.3
20260503225542 67 297 5.2 10.4 0.00 0.00 0.00 33 1017.4
20260503224902 67 295 3.5 10.4 0.00 0.00 0.00 34 1017.4
20260503224226 66 314 6.1 10.4 0.00 0.00 0.00 33 1017.4
20260503222902 67 311 5.2 10.4 0.00 0.00 0.00 34 1017.4
20260503222222 67 284 4.3 10.4 0.00 0.00 0.00 33 1017.4
20260503221757 67 322 7.0 12.2 0.00 0.00 0.00 32 1017.6
20260503220902 67 294 6.1 10.4 0.00 0.00 0.00 34 1017.6
20260503220222 67 275 5.2 11.3 0.00 0.00 0.00 34 1017.7
20260503215542 67 282 5.2 12.2 0.00 0.00 0.00 32 1017.7
20260503214902 66 319 7.8 12.2 0.00 0.00 0.00 33 1017.7
20260503214435 66 309 7.8 13.0 0.00 0.00 0.00 32 1017.9
20260503213542 66 306 8.7 12.2 0.00 0.00 0.00 33 1018.0
20260503212902 66 314 7.0 13.0 0.00 0.00 0.00 33 1017.9
20260503212222 67 289 7.8 13.0 0.00 0.00 0.00 33 1018.1
20260503211543 67 261 5.2 11.3 0.00 0.00 0.00 34 1018.2
20260503210902 66 311 7.0 10.4 0.00 0.00 0.00 33 1018.3
20260503210434 66 302 7.8 15.6 0.00 0.00 0.00 31 1018.3
20260503205543 67 260 7.8 15.6 0.00 0.00 0.00 33 1018.3
20260503204902 66 250 7.8 11.3 0.00 0.00 0.00 33 1018.4
20260503204226 66 283 3.5 13.9 0.00 0.00 0.00 34 1018.4
20260503202222 66 265 6.1 12.2 0.00 0.00 0.00 34 1018.8
20260503195543 65 284 6.1 13.0 0.00 0.00 0.00 32 1019.4
20260503195116 66 295 9.6 13.0 0.00 0.00 0.00 32 1019.6
20260503194222 66 233 5.2 9.6 0.00 0.00 0.00 35 1019.7
20260503193543 66 261 2.6 11.3 0.00 0.00 0.00 33 1019.8
20260503192902 65 320 8.7 11.3 0.00 0.00 0.00 35 1019.8
20260503192222 64 294 6.1 12.2 0.00 0.00 0.00 37 1020.0
20260503191759 65 238 3.5 10.4 0.00 0.00 0.00 37 1020.2
20260503190222 65 266 7.8 13.9 0.00 0.00 0.00 39 1020.3
20260503185542 64 177 1.7 11.3 0.00 0.00 0.00 39 1020.5
20260503185116 64 259 7.0 13.0 0.00 0.00 0.00 41 1020.4
20260503184432 64 242 7.0 13.0 0.00 0.00 0.00 40 1020.7
20260503183543 64 284 4.3 13.0 0.00 0.00 0.00 41 1020.6
20260503182902 63 314 7.0 11.3 0.00 0.00 0.00 40 1020.6
20260503182434 64 221 3.5 10.4 0.00 0.00 0.00 39 1020.6
20260503181542 63 240 7.0 14.8 0.00 0.00 0.00 40 1020.9
20260503181115 63 285 9.6 14.8 0.00 0.00 0.00 40 1020.8
20260503180222 63 257 5.2 10.4 0.00 0.00 0.00 43 1020.9
20260503175542 62 247 5.2 9.6 0.00 0.00 0.00 44 1021.0
20260503174902 63 236 4.3 10.4 0.00 0.00 0.00 41 1021.1
20260503174223 64 279 4.3 8.7 0.00 0.00 0.00 41 1021.1
20260503173543 61 283 3.5 8.7 0.00 0.00 0.00 43 1021.2
20260503172903 61 103 3.5 8.7 0.00 0.00 0.00 44 1021.2
20260503172222 62 258 4.3 11.3 0.00 0.00 0.00 45 1021.4
20260503171542 61 286 4.3 7.0 0.00 0.00 0.00 45 1021.5
20260503171116 60 151 4.3 8.7 0.00 0.00 0.00 46 1021.6